Location: Lac Echo
(45.9375°N, 75.4580°W)
Time: 09:21:59
(UTC-05:00)

Amateur Radio Satellites - All Passes

Search period start: 27 January 2015 08:51
Search period end: 28 January 2015 08:51
Location: Lac Echo, 45.9375°N, 75.4580°W

Satellite Date Start Highest point End Downlink Frequencies (MHz)
Time Altitude Azimuth
BRITE-PL 27 Jan 08:52:29 08:58:15 85° 101° (E) 09:03:50 437.365/2234.400
Oscar 11 27 Jan 08:53:12 08:56:23 20° 91° (E) 08:59:39 145.826/435.025
POLYITAN 1 27 Jan 08:53:47 08:56:30 17° 63° (ENE) 08:59:20 437.675
HO-68 27 Jan 08:54:59 09:02:06 64° 103° (ESE) 09:09:12 435.675
AAUSAT CUBESAT 2 27 Jan 08:56:06 09:00:04 41° 98° (E) 09:04:00 437.432
CUTE 1.7 + AOD 2 27 Jan 08:59:30 09:03:46 73° 103° (ESE) 09:07:59 437.475
GOMX 1 27 Jan 09:00:01 09:05:33 73° 101° (ESE) 09:10:51 467.674
ANTELSAT 27 Jan 09:04:40 09:08:55 35° 69° (ENE) 09:13:14 437.575/2403.000
BUGSAT 1 27 Jan 09:05:01 09:07:28 16° 63° (ENE) 09:10:05 437.445
DELFI C3 27 Jan 09:05:14 09:08:18 21° 92° (E) 09:11:27 145.870
TIGRISAT 27 Jan 09:13:39 09:18:04 41° 70° (ENE) 09:22:30 435.000
POPSAT HIP 1 27 Jan 09:14:11 09:17:41 25° 66° (ENE) 09:21:15 437.405
DUCHIFAT 1 27 Jan 09:18:08 09:21:43 27° 67° (ENE) 09:25:23 145.980
CUBEBUG 2 27 Jan 09:19:10 09:23:08 28° 93° (E) 09:27:02 437.445
DOVE 4 27 Jan 09:23:22 09:28:43 87° 107° (ESE) 09:33:48 437.250
VERMONT LUNAR 27 Jan 09:25:44 09:27:44 15° 156° (SSE) 09:29:47 437.305
UKube-1 27 Jan 09:26:59 09:30:37 26° 94° (E) 09:34:17 .
CINEMA 3 27 Jan 09:27:45 09:32:38 57° 100° (E) 09:37:17 145.822/145.860
SEEDS 27 Jan 09:33:34 09:37:42 56° 287° (WNW) 09:41:48 437.485
ZACube-1 27 Jan 09:36:57 09:40:53 29° 94° (E) 09:44:44 437.345
DX 1 27 Jan 09:44:39 09:48:49 40° 98° (E) 09:52:59 434.975-435.025
FUNcube-1 27 Jan 09:49:33 09:53:44 39° 96° (E) 09:57:51 145.935
NANOSAT C BR1 27 Jan 09:51:28 09:55:39 59° 73° (ENE) 09:59:54 145.865
50 SAT 27 Jan 09:56:02 09:58:54 19° 91° (E) 10:01:50 437.505
HUMSAT D 27 Jan 09:58:06 10:01:43 27° 94° (E) 10:05:20 437.325/437.525
AISAT 27 Jan 09:58:32 10:02:07 23° 93° (E) 10:05:47 437.250
RS-15 27 Jan 10:01:13 10:10:27 29° 1° (N) 10:19:58 29.354- 29.394
UWE-3 27 Jan 10:03:47 10:08:20 67° 101° (E) 10:12:45 435.000/436.395/437.385
COMPASS 1 27 Jan 10:03:47 10:07:32 32° 291° (WNW) 10:11:15 437.405
QB50P2 27 Jan 10:04:20 10:08:37 83° 78° (ENE) 10:12:58 145.880/145.840
UNISAT 6 27 Jan 10:05:03 10:09:45 63° 259° (W) 10:14:26 437.425
AIST 2 27 Jan 10:05:47 10:07:56 14° 29° (NNE) 10:10:11 435.215
PHONESAT 2.4 27 Jan 10:10:29 10:12:56 17° 158° (SSE) 10:15:25 2401.200-2431.200
CANX-2 27 Jan 10:11:43 10:14:51 20° 295° (WNW) 10:17:53 2200.000
QB50P1 27 Jan 10:14:31 10:18:49 79° 259° (WSW) 10:23:08 145.935-145.965
BEESAT 2 27 Jan 10:21:19 10:24:54 26° 41° (NE) 10:28:28 435.950
VELOX 1 27 Jan 10:27:34 10:31:53 43° 99° (E) 10:36:11 145.980
POLYITAN 1 27 Jan 10:27:50 10:32:04 56° 260° (W) 10:36:21 437.675
Oscar 11 27 Jan 10:28:42 10:32:48 41° 289° (WNW) 10:36:50 145.826/435.025
BRITE-PL 27 Jan 10:32:17 10:36:05 18° 301° (WNW) 10:39:38 437.365/2234.400
AAUSAT CUBESAT 2 27 Jan 10:32:24 10:35:30 20° 295° (WNW) 10:38:29 437.432
CUTE 1.7 + AOD 2 27 Jan 10:37:10 10:39:12 13° 299° (WNW) 10:41:02 437.475
BEESAT 3 27 Jan 10:37:40 10:41:35 38° 46° (NE) 10:45:28 437.485
BUGSAT 1 27 Jan 10:38:35 10:42:36 55° 260° (W) 10:46:42 437.445
GOMX 1 27 Jan 10:39:14 10:43:06 19° 300° (WNW) 10:46:44 467.674
DELFI C3 27 Jan 10:39:58 10:43:43 35° 290° (WNW) 10:47:23 145.870
ANTELSAT 27 Jan 10:41:39 10:45:47 29° 266° (W) 10:49:52 437.575/2403.000
CUBEBUG 1 27 Jan 10:43:11 10:47:00 27° 94° (E) 10:50:51 437.445
HO-68 27 Jan 10:43:21 10:49:26 30° 302° (WNW) 10:55:21 435.675
SO-50 27 Jan 10:47:28 10:51:52 49° 120° (ESE) 10:56:27 436.795
AIST 1 27 Jan 10:48:53 10:52:18 24° 89° (E) 10:55:49
POPSAT HIP 1 27 Jan 10:49:33 10:53:28 34° 264° (W) 10:57:25 437.405
TIGRISAT 27 Jan 10:51:07 10:55:00 24° 268° (W) 10:58:47 435.000
GONETS M04 27 Jan 10:51:07 10:57:31 23° 58° (ENE) 11:04:12
DUCHIFAT 1 27 Jan 10:53:42 10:57:31 31° 265° (W) 11:01:21 145.980
CUBEBUG 2 27 Jan 10:55:41 10:59:54 34° 292° (WNW) 11:03:56 437.445
VERMONT LUNAR 27 Jan 11:02:10 11:05:17 30° 172° (S) 11:08:26 437.305
DOVE 4 27 Jan 11:02:39 11:05:47 16° 301° (WNW) 11:08:40 437.250
UKube-1 27 Jan 11:02:53 11:06:52 34° 292° (WNW) 11:10:47 .
CINEMA 3 27 Jan 11:05:49 11:09:25 20° 298° (WNW) 11:12:48 145.822/145.860
ZACube-1 27 Jan 11:13:18 11:17:16 30° 292° (WNW) 11:21:04 437.345
DX 1 27 Jan 11:21:22 11:24:53 23° 295° (WNW) 11:28:18 434.975-435.025
TISAT 1 27 Jan 11:23:11 11:26:06 18° 91° (E) 11:29:08 437.305
FUNcube-1 27 Jan 11:26:18 11:29:55 24° 295° (WNW) 11:33:23 145.935
NANOSAT C BR1 27 Jan 11:29:34 11:32:00 14° 272° (W) 11:34:17 145.865
ESTCUBE 1 27 Jan 11:30:04 11:34:37 87° 101° (E) 11:39:10 437.505/2401.250
50 SAT 27 Jan 11:30:24 11:34:15 40° 289° (WNW) 11:38:02 437.505
PCSat 27 Jan 11:30:29 11:33:28 15° 29° (NNE) 11:36:35 145.827
HUMSAT D 27 Jan 11:33:46 11:37:33 31° 292° (WNW) 11:41:14 437.325/437.525
AISAT 27 Jan 11:34:41 11:38:56 40° 290° (WNW) 11:43:07 437.250
UWE-3 27 Jan 11:41:36 11:44:24 16° 299° (WNW) 11:47:00 435.000/436.395/437.385
Oscar 19 27 Jan 11:42:53 11:47:22 31° 66° (ENE) 11:51:56 437.125/150
AIST 2 27 Jan 11:43:12 11:47:29 61° 51° (NE) 11:51:41 435.215
QB50P2 27 Jan 11:44:34 11:45:16 10° 275° (W) 11:45:41 145.880/145.840
PHONESAT 2.4 27 Jan 11:47:40 11:50:58 33° 174° (S) 11:54:17 2401.200-2431.200
ITAMSAT 1 27 Jan 11:55:41 11:58:46 17° 59° (ENE) 12:02:02 435.822/435.867
BEESAT 2 27 Jan 11:59:18 12:03:18 43° 241° (WSW) 12:07:13 435.950
VELOX 1 27 Jan 12:04:44 12:08:14 22° 296° (WNW) 12:11:40 145.980
SPROUT 27 Jan 12:13:12 12:17:33 61° 101° (E) 12:21:51 437.525
RS-15 27 Jan 12:15:57 12:26:31 45° 33° (NNE) 12:37:37 29.354- 29.394
BEESAT 3 27 Jan 12:16:05 12:19:37 27° 244° (WSW) 12:23:03 437.485
CUBEBUG 1 27 Jan 12:19:25 12:23:25 33° 292° (WNW) 12:27:22 437.445
SWISSCUBE 27 Jan 12:22:59 12:25:26 14° 88° (E) 12:28:06 437.505
AIST 1 27 Jan 12:26:05 12:29:53 31° 287° (WNW) 12:33:41
SO-50 27 Jan 12:28:35 12:32:40 29° 321° (NW) 12:36:49 436.795
Gurwin Techsat 1B 27 Jan 12:38:29 12:42:45 26° 63° (ENE) 12:47:08 435.225
BEESAT 27 Jan 12:38:36 12:41:53 19° 90° (E) 12:45:19 436.000
VERMONT LUNAR 27 Jan 12:39:52 12:43:00 30° 189° (S) 12:46:08 437.305
ITUPSAT 1 27 Jan 12:41:01 12:44:24 19° 91° (E) 12:47:55 437.325
GONETS M04 27 Jan 12:47:02 12:55:46 88° 265° (W) 13:04:29
TISAT 1 27 Jan 12:58:05 13:02:14 47° 289° (WNW) 13:06:21 437.305
ESTCUBE 1 27 Jan 13:08:56 13:10:55 12° 301° (WNW) 13:12:43 437.505/2401.250
PCSat 27 Jan 13:12:50 13:18:11 55° 52° (NE) 13:23:31 145.827
Oscar 19 27 Jan 13:21:46 13:26:38 39° 263° (W) 13:31:30 437.125/150
CUSAT 1 27 Jan 13:22:41 13:25:34 13° 47° (NE) 13:28:29 437.405
AIST 2 27 Jan 13:22:54 13:25:42 17° 248° (WSW) 13:28:20 435.215
PHONESAT 2.4 27 Jan 13:25:54 13:29:08 30° 191° (S) 13:32:21 2401.200-2431.200
ITAMSAT 1 27 Jan 13:32:31 13:37:41 81° 255° (WSW) 13:42:56 435.822/435.867
KKS-1 27 Jan 13:35:03 13:37:16 14° 88° (E) 13:39:43 437.445
AO-7 27 Jan 13:40:09 13:47:14 33° 55° (NE) 13:54:27 29.400- 29.500
SPROUT 27 Jan 13:50:31 13:53:14 16° 298° (WNW) 13:55:47 437.525
SWISSCUBE 27 Jan 13:59:08 14:03:56 72° 286° (WNW) 14:08:42 437.505
JAS-2 27 Jan 14:09:36 14:11:38 13° 57° (ENE) 14:13:53 435.910
SO-50 27 Jan 14:14:07 14:14:50 10° 344° (NNW) 14:15:28 436.795
BEESAT 27 Jan 14:15:28 14:20:09 54° 289° (WNW) 14:24:48 436.000
Gurwin Techsat 1B 27 Jan 14:17:21 14:22:30 49° 261° (W) 14:27:40 435.225
ITUPSAT 1 27 Jan 14:18:01 14:22:41 53° 289° (WNW) 14:27:20 437.325
VERMONT LUNAR 27 Jan 14:18:32 14:20:33 14° 204° (SSW) 14:22:31 437.305
HORYU 2 27 Jan 14:22:58 14:27:27 72° 74° (ENE) 14:31:57 437.375
DANDE 27 Jan 14:23:33 14:29:54 31° 61° (ENE) 14:35:03 436.750
RS-15 27 Jan 14:28:37 14:39:56 74° 239° (WSW) 14:51:41 29.354- 29.394
M-CUBED/EXP-1 PRIME 27 Jan 14:35:17 14:35:42 10° 95° (E) 14:36:19 437.505
GONETS M04 27 Jan 14:45:36 14:51:31 20° 282° (WNW) 14:57:01
PCSat 27 Jan 14:56:53 15:01:18 25° 251° (WSW) 15:05:36 145.827
CUSAT 1 27 Jan 15:03:47 15:10:38 66° 74° (ENE) 15:15:44 437.405
PHONESAT 2.4 27 Jan 15:05:16 15:07:05 13° 206° (SSW) 15:08:50 2401.200-2431.200
STARS 27 Jan 15:08:16 15:12:45 81° 103° (ESE) 15:17:11 437.465
AUBIESAT-1 27 Jan 15:08:17 15:11:00 23° 101° (E) 15:13:48 437.475
KKS-1 27 Jan 15:09:59 15:14:29 67° 287° (WNW) 15:18:55 437.445
ITAMSAT 1 27 Jan 15:16:54 15:18:11 11° 276° (W) 15:19:08 435.822/435.867
AO-7 27 Jan 15:31:10 15:39:32 70° 255° (WSW) 15:47:55 29.400- 29.500
SWISSCUBE 27 Jan 15:39:58 15:41:02 11° 304° (WNW) 15:41:51 437.505
CUTE-I 27 Jan 15:43:30 15:45:57 14° 56° (NE) 15:48:37 437.470
JAS-2 27 Jan 15:50:35 15:56:07 81° 75° (ENE) 16:01:21 435.910
HORYU 2 27 Jan 16:02:32 16:04:43 13° 273° (W) 16:06:41 437.375
DANDE 27 Jan 16:06:55 16:13:52 50° 269° (W) 16:19:06 436.750
M-CUBED/EXP-1 PRIME 27 Jan 16:07:53 16:11:07 49° 293° (WNW) 16:14:21 437.505
O/OREOS (USA 219) 27 Jan 16:15:21 16:19:33 41° 108° (ESE) 16:23:50 437.305
MOZHAYETS 4 27 Jan 16:34:25 16:38:46 42° 97° (E) 16:43:08
RS-15 27 Jan 16:43:07 16:50:43 19° 259° (W) 16:57:45 29.354- 29.394
AUBIESAT-1 27 Jan 16:43:19 16:45:56 22° 298° (WNW) 16:48:32 437.475
STARS 27 Jan 16:46:30 16:48:40 13° 300° (WNW) 16:50:40 437.465
CUSAT 1 27 Jan 16:48:06 16:52:43 20° 280° (W) 16:56:25 437.405
Cubesat XI-IV 27 Jan 16:59:32 17:04:42 55° 70° (ENE) 17:09:56 437.490
CUTE-I 27 Jan 17:19:57 17:25:16 80° 74° (ENE) 17:30:39 437.470
AO-7 27 Jan 17:29:41 17:34:07 14° 277° (W) 17:37:58 29.400- 29.500
SO-50 27 Jan 17:36:36 17:40:11 20° 33° (NNE) 17:43:52 436.795
PRISM 27 Jan 17:37:22 17:40:24 20° 92° (E) 17:43:30 437.425
JAS-2 27 Jan 17:39:16 17:42:01 13° 273° (W) 17:44:25 435.910
STRAND 1 27 Jan 17:42:36 17:45:08 14° 87° (E) 17:47:55 437.568
HO-68 27 Jan 17:42:47 17:46:16 15° 47° (NE) 17:50:03 435.675
O/OREOS (USA 219) 27 Jan 17:55:24 17:59:10 25° 307° (NW) 18:02:54 437.305
YUBILEINY 27 Jan 17:56:43 18:01:20 17° 76° (ENE) 18:06:29 435.215
MOZHAYETS 4 27 Jan 18:12:11 18:15:48 23° 295° (WNW) 18:19:20
CUBESAT XI-V 27 Jan 18:21:16 18:25:44 43° 98° (E) 18:30:14 437.345
BRITE-PL 27 Jan 18:29:05 18:32:35 19° 60° (ENE) 18:36:23 437.365/2234.400
GOMX 1 27 Jan 18:34:49 18:37:46 16° 58° (ENE) 18:41:00 467.674
Cubesat XI-IV 27 Jan 18:41:04 18:45:13 22° 269° (W) 18:49:15 437.490
SEEDS 27 Jan 18:54:16 18:56:45 16° 63° (ENE) 18:59:23 437.485
DOVE 4 27 Jan 18:55:32 18:58:47 18° 60° (ENE) 19:02:16 437.250
CINEMA 3 27 Jan 18:58:40 18:59:52 11° 56° (ENE) 19:01:20 145.822/145.860
CUTE-I 27 Jan 19:03:03 19:06:07 15° 273° (W) 19:08:56 437.470
PRISM 27 Jan 19:12:13 19:16:07 40° 290° (WNW) 19:20:00 437.425
SO-50 27 Jan 19:16:30 19:21:28 87° 53° (NE) 19:26:24 436.795
STRAND 1 27 Jan 19:19:54 19:25:04 81° 286° (WNW) 19:30:14 437.568
COMPASS 1 27 Jan 19:22:28 19:25:52 24° 67° (ENE) 19:29:21 437.405
HO-68 27 Jan 19:25:45 19:32:44 61° 68° (ENE) 19:39:47 435.675
CANX-2 27 Jan 19:30:26 19:34:31 43° 71° (ENE) 19:38:37 2200.000
UWE-3 27 Jan 19:30:56 19:31:46 11° 58° (ENE) 19:32:51 435.000/436.395/437.385
YUBILEINY 27 Jan 19:48:12 19:56:51 78° 96° (E) 20:05:35 435.215
AAUSAT CUBESAT 2 27 Jan 19:49:35 19:53:31 40° 71° (ENE) 19:57:29 437.432
Oscar 11 27 Jan 19:50:33 19:53:55 23° 66° (ENE) 19:57:23 145.826/435.025
CUTE 1.7 + AOD 2 27 Jan 19:54:39 19:58:56 72° 74° (ENE) 20:03:14 437.475
DELFI C3 27 Jan 19:56:19 19:59:16 20° 66° (ENE) 20:02:19 145.870
CUBESAT XI-V 27 Jan 19:59:13 20:02:59 24° 295° (WNW) 20:06:39 437.345
BRITE-PL 27 Jan 20:05:29 20:10:30 71° 259° (W) 20:15:57 437.365/2234.400
GOMX 1 27 Jan 20:10:06 20:15:10 86° 257° (WSW) 20:20:36 467.674
CUBEBUG 2 27 Jan 20:19:32 20:23:46 34° 68° (ENE) 20:28:06 437.445
UKube-1 27 Jan 20:24:26 20:28:13 31° 67° (ENE) 20:32:04 .
SEEDS 27 Jan 20:27:58 20:32:11 59° 260° (W) 20:36:26 437.485
DOVE 4 27 Jan 20:30:55 20:35:57 75° 258° (WSW) 20:41:15 437.250
CINEMA 3 27 Jan 20:31:20 20:36:13 69° 74° (ENE) 20:41:16 145.822/145.860
ZACube-1 27 Jan 20:35:11 20:39:18 33° 68° (ENE) 20:43:29 437.345
DX 1 27 Jan 20:42:37 20:46:47 48° 71° (ENE) 20:51:02 434.975-435.025
50 SAT 27 Jan 20:46:18 20:49:06 18° 64° (ENE) 20:52:01 437.505
FUNcube-1 27 Jan 20:47:30 20:51:50 43° 71° (ENE) 20:56:14 145.935
HUMSAT D 27 Jan 20:52:36 20:56:17 28° 68° (ENE) 21:00:03 437.325/437.525
COMPASS 1 27 Jan 20:57:36 21:01:29 34° 264° (W) 21:05:21 437.405
ESTCUBE 1 27 Jan 20:58:05 21:00:16 14° 60° (ENE) 21:02:39 437.505/2401.250
SO-50 27 Jan 20:58:46 21:01:27 14° 250° (WSW) 21:03:55 436.795
AISAT 27 Jan 20:59:03 21:02:52 29° 67° (ENE) 21:06:46 437.250
STRAND 1 27 Jan 21:01:06 21:03:33 13° 303° (WNW) 21:05:46 437.568
UWE-3 27 Jan 21:02:54 21:07:34 73° 74° (ENE) 21:12:18 435.000/436.395/437.385
CANX-2 27 Jan 21:07:31 21:10:43 19° 269° (W) 21:13:47 2200.000
HO-68 27 Jan 21:14:50 21:20:58 29° 267° (W) 21:26:58 435.675
Oscar 11 27 Jan 21:25:50 21:29:56 39° 263° (W) 21:34:02 145.826/435.025
AAUSAT CUBESAT 2 27 Jan 21:26:11 21:29:23 20° 268° (W) 21:32:30 437.432
VELOX 1 27 Jan 21:27:42 21:32:01 53° 71° (ENE) 21:36:23 145.980
DELFI C3 27 Jan 21:30:25 21:34:18 40° 262° (W) 21:38:10 145.870
CUTE 1.7 + AOD 2 27 Jan 21:33:42 21:35:27 12° 273° (W) 21:36:59 437.475
CUBEBUG 1 27 Jan 21:41:59 21:45:48 31° 68° (ENE) 21:49:42 437.445
YUBILEINY 27 Jan 21:47:38 21:54:47 26° 299° (WNW) 22:01:44 435.215
QB50P2 27 Jan 21:49:42 21:51:11 12° 87° (E) 21:52:53 145.880/145.840
GOMX 1 27 Jan 21:52:12 21:54:18 12° 278° (W) 21:56:08 467.674
UNISAT 6 27 Jan 21:55:38 21:59:10 23° 92° (E) 22:02:43 437.425
CUBEBUG 2 27 Jan 21:56:15 22:00:30 31° 266° (W) 22:04:44 437.445
QB50P1 27 Jan 21:58:56 22:01:18 15° 89° (E) 22:03:50 145.935-145.965
UKube-1 27 Jan 22:00:38 22:04:24 28° 265° (W) 22:08:09 .
CINEMA 3 27 Jan 22:10:53 22:14:02 16° 273° (W) 22:17:01 145.822/145.860
ZACube-1 27 Jan 22:11:40 22:15:43 29° 266° (W) 22:19:43 437.345
POLYITAN 1 27 Jan 22:11:54 22:15:06 20° 91° (E) 22:18:23 437.675
ISS 27 Jan 22:16:20 22:19:09 27° 140° (SE) 22:22:02 145.825
TISAT 1 27 Jan 22:18:22 22:21:23 20° 64° (ENE) 22:24:32 437.305
BUGSAT 1 27 Jan 22:19:21 22:22:21 19° 91° (E) 22:25:27 437.445
50 SAT 27 Jan 22:19:56 22:23:56 47° 261° (W) 22:27:58 437.505
DX 1 27 Jan 22:20:18 22:23:22 18° 269° (W) 22:26:20 434.975-435.025
FUNcube-1 27 Jan 22:24:45 22:28:25 22° 269° (W) 22:32:00 145.935
HUMSAT D 27 Jan 22:28:07 22:32:02 31° 265° (W) 22:35:56 437.325/437.525
AIST 1 27 Jan 22:30:01 22:34:23 81° 80° (E) 22:38:45
ANTELSAT 27 Jan 22:30:56 22:35:21 51° 100° (E) 22:39:38 437.575/2403.000
ESTCUBE 1 27 Jan 22:32:09 22:36:38 76° 257° (WSW) 22:41:09 437.505/2401.250
POPSAT HIP 1 27 Jan 22:32:24 22:36:17 32° 96° (E) 22:40:11 437.405
AISAT 27 Jan 22:35:28 22:39:28 31° 264° (W) 22:43:28 437.250
DUCHIFAT 1 27 Jan 22:36:03 22:40:00 34° 96° (E) 22:43:57 145.980
TIGRISAT 27 Jan 22:39:41 22:44:10 62° 101° (E) 22:48:31 435.000
UWE-3 27 Jan 22:42:14 22:44:44 14° 274° (W) 22:47:01 435.000/436.395/437.385
VELOX 1 27 Jan 23:06:00 23:09:00 17° 270° (W) 23:11:50 145.980
SPROUT 27 Jan 23:09:42 23:13:58 64° 73° (ENE) 23:18:17 437.525
NANOSAT C BR1 27 Jan 23:10:01 23:14:22 80° 102° (ESE) 23:18:39 145.865
CUBEBUG 1 27 Jan 23:18:26 23:22:13 28° 266° (W) 23:25:57 437.445
QB50P2 27 Jan 23:23:23 23:27:43 73° 286° (WNW) 23:31:59 145.880/145.840
SWISSCUBE 27 Jan 23:31:46 23:35:25 23° 64° (ENE) 23:39:09 437.505
UNISAT 6 27 Jan 23:31:57 23:36:10 39° 291° (WNW) 23:40:14 437.425
QB50P1 27 Jan 23:33:23 23:37:39 58° 287° (WNW) 23:41:52 145.935-145.965
POLYITAN 1 27 Jan 23:47:10 23:51:16 42° 290° (WNW) 23:55:19 437.675
BEESAT 27 Jan 23:47:26 23:51:28 29° 66° (ENE) 23:55:36 436.000
ITUPSAT 1 27 Jan 23:50:12 23:54:17 30° 66° (ENE) 23:58:27 437.325
ISS 27 Jan 23:52:17 23:55:32 56° 338° (NNW) 23:58:48 145.825
TISAT 1 27 Jan 23:52:53 23:56:57 44° 261° (W) 00:01:04 437.305
BUGSAT 1 27 Jan 23:54:00 23:58:07 45° 289° (WNW) 00:02:12 437.445
GONETS M04 27 Jan 23:57:15 00:03:19 22° 79° (E) 00:09:44
POPSAT HIP 1 28 Jan 00:08:26 00:12:08 27° 293° (WNW) 00:15:43 437.405
ANTELSAT 28 Jan 00:08:36 00:11:48 19° 297° (WNW) 00:14:50 437.575/2403.000
AIST 1 28 Jan 00:11:09 00:11:28 10° 277° (W) 00:11:32
DUCHIFAT 1 28 Jan 00:12:11 00:15:45 25° 294° (WNW) 00:19:13 145.980
TIGRISAT 28 Jan 00:17:38 00:20:29 16° 299° (WNW) 00:23:08 435.000
STARS 28 Jan 00:34:20 00:36:08 13° 59° (ENE) 00:38:07 437.465
KKS-1 28 Jan 00:35:38 00:38:40 19° 63° (ENE) 00:41:50 437.445
O/OREOS (USA 219) 28 Jan 00:44:08 00:47:14 18° 48° (NE) 00:50:27 437.305
NANOSAT C BR1 28 Jan 00:47:47 00:49:41 12° 300° (WNW) 00:51:25 145.865
SPROUT 28 Jan 00:48:19 00:50:35 14° 272° (W) 00:52:40 437.525
SWISSCUBE 28 Jan 01:08:27 01:13:02 47° 261° (W) 01:17:39 437.505
BEESAT 28 Jan 01:24:51 01:29:15 36° 264° (W) 01:33:38 436.000
M-CUBED/EXP-1 PRIME 28 Jan 01:24:54 01:28:21 29° 64° (ENE) 01:31:37 437.505
ITUPSAT 1 28 Jan 01:27:47 01:32:08 34° 264° (W) 01:36:29 437.325
ISS 28 Jan 01:29:32 01:32:28 29° 357° (N) 01:35:26 145.825
Oscar 19 28 Jan 01:30:23 01:35:32 62° 101° (E) 01:40:37 437.125/150
ITAMSAT 1 28 Jan 01:43:13 01:47:47 30° 94° (E) 01:52:24 435.822/435.867
GONETS M04 28 Jan 01:50:25 01:59:13 84° 279° (W) 02:08:01
BEESAT 2 28 Jan 01:57:11 02:00:07 20° 114° (ESE) 02:03:12 435.950
AUBIESAT-1 28 Jan 01:58:54 02:02:51 60° 69° (ENE) 02:06:30 437.475
STARS 28 Jan 02:07:34 02:12:01 85° 257° (WSW) 02:16:31 437.465
KKS-1 28 Jan 02:10:35 02:14:58 54° 260° (W) 02:19:25 437.445
BEESAT 3 28 Jan 02:12:09 02:15:44 30° 117° (ESE) 02:19:26 437.485
HORYU 2 28 Jan 02:14:22 02:15:45 11° 86° (E) 02:17:21 437.375
O/OREOS (USA 219) 28 Jan 02:22:36 02:27:11 67° 248° (WSW) 02:31:45 437.305
Gurwin Techsat 1B 28 Jan 02:30:48 02:36:02 56° 100° (E) 02:41:16 435.225
CUSAT 1 28 Jan 02:33:18 02:37:55 17° 79° (E) 02:43:01 437.405
RS-15 28 Jan 02:52:18 02:55:05 12° 96° (E) 02:58:54 29.354- 29.394
M-CUBED/EXP-1 PRIME 28 Jan 02:59:54 03:03:21 26° 258° (WSW) 03:06:33 437.505
ISS 28 Jan 03:06:18 03:09:30 43° 18° (NNE) 03:12:41 145.825
Oscar 19 28 Jan 03:10:41 03:14:29 20° 299° (WNW) 03:18:07 437.125/150
AIST 2 28 Jan 03:21:47 03:25:58 58° 122° (ESE) 03:30:13 435.215
ITAMSAT 1 28 Jan 03:22:32 03:27:24 39° 293° (WNW) 03:32:13 435.822/435.867
AO-7 28 Jan 03:30:16 03:37:43 36° 95° (E) 03:45:14 29.400- 29.500
BEESAT 2 28 Jan 03:34:00 03:38:03 50° 311° (NW) 03:42:10 435.950
DANDE 28 Jan 03:35:39 03:43:00 39° 88° (E) 03:50:51 436.750
AUBIESAT-1 28 Jan 03:36:21 03:38:06 12° 264° (W) 03:39:38 437.475
MOZHAYETS 4 28 Jan 03:38:42 03:43:10 53° 72° (ENE) 03:47:39
HORYU 2 28 Jan 03:48:37 03:53:06 78° 286° (WNW) 03:57:31 437.375
BEESAT 3 28 Jan 03:50:03 03:53:51 34° 316° (NW) 03:57:41 437.485
GONETS M04 28 Jan 03:51:18 03:57:42 21° 304° (NW) 04:03:43
PCSat 28 Jan 03:57:35 04:02:10 29° 111° (ESE) 04:06:51 145.827
Gurwin Techsat 1B 28 Jan 04:11:31 04:15:42 23° 298° (WNW) 04:19:45 435.225
CUSAT 1 28 Jan 04:11:39 04:19:47 71° 97° (E) 04:28:10 437.405
PRISM 28 Jan 04:30:36 04:33:43 22° 65° (ENE) 04:36:55 437.425
JAS-2 28 Jan 04:40:25 04:45:54 57° 101° (E) 04:52:01 435.910
ISS 28 Jan 04:42:52 04:46:01 41° 216° (SW) 04:49:09 145.825
RS-15 28 Jan 04:54:42 05:05:13 59° 116° (ESE) 05:15:55 29.354- 29.394
STRAND 1 28 Jan 05:00:19 05:04:30 27° 64° (ENE) 05:08:49 437.568
AIST 2 28 Jan 05:01:29 05:04:56 23° 322° (NW) 05:08:22 435.215
Cubesat XI-IV 28 Jan 05:15:18 05:18:50 18° 89° (E) 05:22:33 437.490
BEESAT 2 28 Jan 05:15:41 05:17:18 12° 333° (NNW) 05:18:48 435.950
MOZHAYETS 4 28 Jan 05:17:36 05:20:47 18° 271° (W) 05:23:49
DANDE 28 Jan 05:18:05 05:26:15 59° 288° (WNW) 05:34:46 436.750
AO-7 28 Jan 05:22:48 05:30:58 59° 296° (WNW) 05:39:01 29.400- 29.500
CUBESAT XI-V 28 Jan 05:27:05 05:31:34 55° 72° (ENE) 05:36:07 437.345
HORYU 2 28 Jan 05:28:17 05:29:04 10° 303° (WNW) 05:29:38 437.375
CUTE-I 28 Jan 05:35:06 05:39:33 26° 93° (E) 05:44:04 437.470
PCSat 28 Jan 05:40:10 05:45:24 48° 310° (NW) 05:50:41 145.827
YUBILEINY 28 Jan 05:55:22 06:03:37 44° 70° (ENE) 06:11:59 435.215
CUSAT 1 28 Jan 05:56:11 06:03:34 33° 297° (WNW) 06:10:48 437.405
PRISM 28 Jan 06:05:13 06:09:04 37° 262° (W) 06:12:55 437.425
JAS-2 28 Jan 06:26:23 06:30:49 25° 296° (WNW) 06:35:27 435.910
STRAND 1 28 Jan 06:38:40 06:43:32 44° 262° (W) 06:48:25 437.568
Cubesat XI-IV 28 Jan 06:54:10 06:59:31 68° 288° (WNW) 07:04:52 437.490
CUBESAT XI-V 28 Jan 07:06:19 07:09:27 17° 271° (W) 07:12:26 437.345
DANDE 28 Jan 07:06:37 07:11:49 16° 310° (NW) 07:16:36 436.750
RS-15 28 Jan 07:07:20 07:17:55 52° 322° (NW) 07:28:41 29.354- 29.394
CUTE-I 28 Jan 07:14:44 07:19:53 47° 291° (WNW) 07:24:59 437.470
AO-7 28 Jan 07:17:17 07:22:13 17° 318° (NW) 07:26:48 29.400- 29.500
PCSat 28 Jan 07:27:31 07:30:15 14° 333° (NNW) 07:32:52 145.827
CUTE 1.7 + AOD 2 28 Jan 07:40:41 07:41:11 10° 85° (E) 07:41:56 437.475
YUBILEINY 28 Jan 07:52:19 08:00:35 47° 271° (W) 08:08:46 435.215
BRITE-PL 28 Jan 08:08:04 08:13:19 37° 94° (E) 08:18:27 437.365/2234.400
TIGRISAT 28 Jan 08:08:05 08:09:04 11° 58° (ENE) 08:10:17 435.000
GOMX 1 28 Jan 08:10:18 08:14:55 28° 91° (E) 08:19:26 467.674
SEEDS 28 Jan 08:11:02 08:14:01 19° 91° (E) 08:17:06 437.485
CINEMA 3 28 Jan 08:25:52 08:28:32 15° 86° (E) 08:31:21 145.822/145.860
DOVE 4 28 Jan 08:28:30 08:32:59 29° 92° (E) 08:37:23 437.250
NANOSAT C BR1 28 Jan 08:33:40 08:34:03 10° 59° (ENE) 08:34:40 145.865
Cubesat XI-IV 28 Jan 08:36:48 08:38:46 12° 306° (NW) 08:40:28 437.490
COMPASS 1 28 Jan 08:38:53 08:42:36 31° 95° (E) 08:46:20 437.405
VERMONT LUNAR 28 Jan 08:44:06 08:45:35 12° 154° (SSE) 08:47:08 437.305
QB50P2 28 Jan 08:45:22 08:47:30 14° 61° (ENE) 08:49:49 145.880/145.840
